Location: Oberkirch
(48.5323°N, 8.0787°E)
Time: 19:52:38
(UTC+00:00)

S-56A Canister/Altair - Pass Details

Date: 24 February 2026
Orbit: 633 x 2484 km, 38.9° (Epoch: 11 March)

Event Time Altitude Azimuth Distance (km) Brightness Sun altitude
Exits shadow 03:33:35 12° 191° (S) 3,772 10.8 -27.9°
Drops below altitude 10° 03:35:15 10° 182° (S) 4,087 11.0 -27.6°
Sets 03:41:17 0° 163° (SSE) 5,489 11.9 -26.7°
